Year,Month,Day,Hour,Minute,Value (Times are PST for temperature in C)
2008,08,14,00,00,16.40
2008,08,14,00,01,16.40
2008,08,14,00,02,16.50
2008,08,14,00,03,16.50
2008,08,14,00,04,16.50
2008,08,14,00,05,16.50
2008,08,14,00,06,16.60
2008,08,14,00,07,16.60
2008,08,14,00,08,16.60
2008,08,14,00,09,16.60
2008,08,14,00,10,16.60
2008,08,14,00,11,16.70
2008,08,14,00,12,16.70
2008,08,14,00,13,16.70
2008,08,14,00,14,16.70
2008,08,14,00,15,16.70
2008,08,14,00,16,16.70
2008,08,14,00,17,16.60
2008,08,14,00,18,16.60
2008,08,14,00,19,16.60
2008,08,14,00,20,16.60
2008,08,14,00,21,16.60
2008,08,14,00,22,16.60
2008,08,14,00,23,16.50
2008,08,14,00,24,16.50
2008,08,14,00,25,16.50
2008,08,14,00,26,16.50
2008,08,14,00,27,16.50
2008,08,14,00,28,16.50
2008,08,14,00,29,16.50
2008,08,14,00,30,16.60
2008,08,14,00,31,16.60
2008,08,14,00,32,16.60
2008,08,14,00,33,16.60
2008,08,14,00,34,16.60
2008,08,14,00,35,16.60
2008,08,14,00,36,16.50
2008,08,14,00,37,16.50
2008,08,14,00,38,16.50
2008,08,14,00,39,16.40
2008,08,14,00,40,16.40
2008,08,14,00,41,16.40
2008,08,14,00,42,16.40
2008,08,14,00,43,16.30
2008,08,14,00,44,16.30
2008,08,14,00,45,16.30
2008,08,14,00,46,16.30
2008,08,14,00,47,16.30
2008,08,14,00,48,16.30
2008,08,14,00,49,16.30
2008,08,14,00,50,16.30
2008,08,14,01,02,16.60
2008,08,14,01,03,16.60
2008,08,14,01,04,16.70
2008,08,14,01,05,16.70
2008,08,14,01,06,16.80
2008,08,14,01,07,16.80
2008,08,14,01,08,16.80
2008,08,14,01,09,16.80
2008,08,14,01,10,16.80
2008,08,14,01,11,16.80
2008,08,14,01,12,16.80
2008,08,14,01,13,16.70
2008,08,14,01,14,16.70
2008,08,14,01,15,16.70
2008,08,14,01,16,16.70
2008,08,14,01,17,16.60
2008,08,14,01,18,16.50
2008,08,14,01,19,16.50
2008,08,14,01,20,16.50
2008,08,14,01,21,16.40
2008,08,14,01,22,16.40
2008,08,14,01,23,16.40
2008,08,14,01,24,16.40
2008,08,14,01,25,16.40
2008,08,14,01,26,16.40
2008,08,14,01,27,16.40
2008,08,14,01,28,16.40
2008,08,14,01,29,16.40
2008,08,14,01,30,16.30
2008,08,14,01,31,16.30
2008,08,14,01,32,16.30
2008,08,14,01,33,16.30
2008,08,14,01,34,16.30
2008,08,14,01,35,16.30
2008,08,14,01,36,16.20
2008,08,14,01,37,16.20
2008,08,14,01,38,16.20
2008,08,14,01,39,16.20
2008,08,14,01,40,16.20
2008,08,14,01,41,16.20
2008,08,14,01,42,16.20
2008,08,14,01,43,16.30
2008,08,14,01,44,16.30
2008,08,14,01,45,16.30
2008,08,14,01,46,16.30
2008,08,14,01,47,16.30
2008,08,14,01,48,16.30
2008,08,14,01,49,16.30
2008,08,14,01,50,16.30
2008,08,14,01,51,16.30
2008,08,14,01,52,16.30
2008,08,14,01,53,16.30
2008,08,14,01,54,16.30
2008,08,14,01,55,16.30
2008,08,14,01,56,16.20
2008,08,14,01,57,16.20
2008,08,14,01,58,16.20
2008,08,14,01,59,16.20
2008,08,14,02,00,16.10
2008,08,14,02,01,16.10
2008,08,14,02,02,16.10
2008,08,14,02,03,16.10
2008,08,14,02,04,16.10
2008,08,14,02,05,16.10
2008,08,14,02,06,16.10
2008,08,14,02,07,16.10
2008,08,14,02,08,16.10
2008,08,14,02,09,16.10
2008,08,14,02,10,16.10
2008,08,14,02,11,16.10
2008,08,14,02,12,16.10
2008,08,14,02,13,16.00
2008,08,14,02,14,16.00
2008,08,14,02,15,16.00
2008,08,14,02,16,16.00
2008,08,14,02,17,16.00
2008,08,14,02,18,16.00
2008,08,14,02,19,15.90
2008,08,14,02,20,15.90
2008,08,14,02,21,15.90
2008,08,14,02,22,15.90
2008,08,14,02,23,15.90
2008,08,14,02,24,15.90
2008,08,14,02,25,15.90
2008,08,14,02,26,15.90
2008,08,14,02,27,15.90
2008,08,14,02,28,15.90
2008,08,14,02,29,15.90
2008,08,14,02,30,15.90
2008,08,14,02,31,15.90
2008,08,14,02,32,15.90
2008,08,14,02,33,15.90
2008,08,14,02,34,15.90
2008,08,14,02,35,15.90
2008,08,14,02,36,15.90
2008,08,14,02,37,15.80
2008,08,14,02,38,15.80
2008,08,14,02,39,15.80
2008,08,14,02,40,15.80
2008,08,14,02,41,15.70
2008,08,14,02,42,15.70
2008,08,14,02,43,15.70
2008,08,14,02,44,15.70
2008,08,14,02,45,15.70
2008,08,14,02,46,15.70
2008,08,14,02,47,15.70
2008,08,14,02,48,15.70
2008,08,14,02,49,15.70
2008,08,14,02,50,15.70
2008,08,14,02,51,15.70
2008,08,14,02,52,15.70
2008,08,14,02,53,15.60
2008,08,14,02,54,15.60
2008,08,14,02,55,15.60
2008,08,14,02,56,15.50
2008,08,14,02,57,15.40
2008,08,14,02,58,15.40
2008,08,14,02,59,15.40
2008,08,14,03,00,15.30
2008,08,14,03,01,15.30
2008,08,14,03,02,15.20
2008,08,14,03,03,15.20
2008,08,14,03,04,15.10
2008,08,14,03,05,15.00
2008,08,14,03,06,15.00
2008,08,14,03,07,15.00
2008,08,14,03,08,15.00
2008,08,14,03,09,15.00
2008,08,14,03,10,15.00
2008,08,14,03,11,15.00
2008,08,14,03,12,15.00
2008,08,14,03,13,14.90
2008,08,14,03,14,14.90
2008,08,14,03,15,14.80
2008,08,14,03,16,14.80
2008,08,14,03,17,14.80
2008,08,14,03,18,14.80
2008,08,14,03,19,14.70
2008,08,14,03,20,14.70
2008,08,14,03,21,14.70
2008,08,14,03,22,14.70
2008,08,14,03,23,14.80
2008,08,14,03,24,14.70
2008,08,14,03,25,14.70
2008,08,14,03,26,14.70
2008,08,14,03,27,14.70
2008,08,14,03,28,14.70
2008,08,14,03,29,14.70
2008,08,14,03,30,14.70
2008,08,14,03,31,14.70
2008,08,14,03,32,14.70
2008,08,14,03,33,14.70
2008,08,14,03,34,14.70
2008,08,14,03,35,14.70
2008,08,14,03,36,14.70
2008,08,14,03,37,14.70
2008,08,14,03,38,14.70
2008,08,14,03,39,14.70
2008,08,14,03,40,14.80
2008,08,14,03,41,14.80
2008,08,14,03,42,14.80
2008,08,14,03,43,14.80
2008,08,14,03,44,14.70
2008,08,14,03,45,14.70
2008,08,14,03,46,14.70
2008,08,14,03,47,14.70
2008,08,14,03,48,14.70
2008,08,14,03,49,14.70
2008,08,14,03,50,14.70
2008,08,14,03,51,14.70
2008,08,14,03,52,14.70
2008,08,14,03,53,14.70
2008,08,14,03,54,14.70
2008,08,14,03,55,14.70
2008,08,14,03,56,14.60
2008,08,14,03,57,14.60
2008,08,14,03,58,14.60
2008,08,14,03,59,14.60
2008,08,14,04,00,14.50
2008,08,14,04,01,14.50
2008,08,14,04,02,14.40
2008,08,14,04,03,14.40
2008,08,14,04,04,14.40
2008,08,14,04,05,14.40
2008,08,14,04,06,14.50
2008,08,14,04,07,14.60
2008,08,14,04,08,14.60
2008,08,14,04,09,14.70
2008,08,14,04,10,14.70
2008,08,14,04,11,14.70
2008,08,14,04,12,14.70
2008,08,14,04,13,14.70
2008,08,14,04,14,14.60
2008,08,14,04,15,14.60
2008,08,14,04,16,14.60
2008,08,14,04,17,14.60
2008,08,14,04,18,14.60
2008,08,14,04,19,14.50
2008,08,14,04,20,14.50
2008,08,14,04,21,14.50
2008,08,14,04,22,14.50
2008,08,14,04,23,14.40
2008,08,14,04,24,14.40
2008,08,14,04,25,14.40
2008,08,14,04,26,14.40
2008,08,14,04,27,14.40
2008,08,14,04,28,14.40
2008,08,14,04,29,14.40
2008,08,14,04,30,14.40
2008,08,14,04,31,14.40
2008,08,14,04,32,14.30
2008,08,14,04,33,14.30
2008,08,14,04,34,14.30
2008,08,14,04,35,14.30
2008,08,14,04,36,14.30
2008,08,14,04,37,14.30
2008,08,14,04,38,14.30
2008,08,14,04,39,14.40
2008,08,14,04,40,14.40
2008,08,14,04,41,14.40
2008,08,14,04,42,14.40
2008,08,14,04,43,14.40
2008,08,14,04,44,14.40
2008,08,14,04,45,14.40
2008,08,14,04,46,14.30
2008,08,14,04,47,14.30
2008,08,14,04,48,14.30
2008,08,14,04,49,14.30
2008,08,14,04,50,14.30
2008,08,14,04,51,14.30
2008,08,14,04,52,14.30
2008,08,14,04,53,14.30
2008,08,14,04,54,14.30
2008,08,14,04,55,14.20
2008,08,14,04,56,14.20
2008,08,14,04,57,14.20
2008,08,14,04,58,14.20
2008,08,14,04,59,14.20
2008,08,14,05,00,14.20
2008,08,14,05,01,14.20
2008,08,14,05,02,14.20
2008,08,14,05,03,14.20
2008,08,14,05,04,14.20
2008,08,14,05,05,14.20
2008,08,14,05,06,14.20
2008,08,14,05,07,14.20
2008,08,14,05,08,14.20
2008,08,14,05,09,14.20
2008,08,14,05,10,14.20
2008,08,14,05,11,14.20
2008,08,14,05,12,14.30
2008,08,14,05,13,14.30
2008,08,14,05,14,14.30
2008,08,14,05,15,14.30
2008,08,14,05,16,14.30
2008,08,14,05,17,14.20
2008,08,14,05,18,14.20
2008,08,14,05,19,14.20
2008,08,14,05,20,14.20
2008,08,14,05,21,14.20
2008,08,14,05,22,14.20
2008,08,14,05,23,14.20
2008,08,14,05,24,14.20
2008,08,14,05,25,14.20
2008,08,14,05,26,14.20
2008,08,14,05,27,14.20
2008,08,14,05,28,14.20
2008,08,14,05,29,14.20
2008,08,14,05,30,14.20
2008,08,14,05,31,14.20
2008,08,14,05,32,14.20
2008,08,14,05,33,14.10
2008,08,14,05,34,14.10
2008,08,14,05,35,14.10
2008,08,14,05,36,14.10
2008,08,14,05,37,14.10
2008,08,14,05,38,14.10
2008,08,14,05,39,14.10
2008,08,14,05,40,14.10
2008,08,14,05,41,14.10
2008,08,14,05,42,14.10
2008,08,14,05,43,14.00
2008,08,14,05,44,14.00
2008,08,14,05,45,14.00
2008,08,14,05,46,14.00
2008,08,14,05,47,14.00
2008,08,14,05,48,14.00
2008,08,14,05,49,14.00
2008,08,14,05,50,14.00
2008,08,14,05,51,14.00
2008,08,14,05,52,14.00
2008,08,14,05,53,13.90
2008,08,14,05,54,13.90
2008,08,14,05,55,13.90
2008,08,14,05,56,13.90
2008,08,14,05,57,13.90
2008,08,14,05,58,13.90
2008,08,14,05,59,13.90
2008,08,14,06,00,13.90
2008,08,14,06,01,13.90
2008,08,14,06,02,13.90
2008,08,14,06,03,13.90
2008,08,14,06,04,13.90
2008,08,14,06,05,13.90
2008,08,14,06,06,13.90
2008,08,14,06,07,13.90
2008,08,14,06,08,13.90
2008,08,14,06,09,13.90
2008,08,14,06,10,13.90
2008,08,14,06,11,13.80
2008,08,14,06,12,13.80
2008,08,14,06,13,13.80
2008,08,14,06,14,13.80
2008,08,14,06,15,13.80
2008,08,14,06,16,13.80
2008,08,14,06,17,13.80
2008,08,14,06,18,13.90
2008,08,14,06,19,13.90
2008,08,14,06,20,13.90
2008,08,14,06,21,13.90
2008,08,14,06,22,13.90
2008,08,14,06,23,13.90
2008,08,14,06,24,13.90
2008,08,14,06,25,13.90
2008,08,14,06,26,13.90
2008,08,14,06,27,13.90
2008,08,14,06,28,13.90
2008,08,14,06,29,14.00
2008,08,14,06,30,14.00
2008,08,14,06,31,14.00
2008,08,14,06,32,14.10
2008,08,14,06,33,14.10
2008,08,14,06,34,14.10
2008,08,14,06,35,14.10
2008,08,14,06,36,14.10
2008,08,14,06,37,14.10
2008,08,14,06,38,14.20
2008,08,14,06,39,14.20
2008,08,14,06,40,14.20
2008,08,14,06,41,14.20
2008,08,14,06,42,14.20
2008,08,14,06,43,14.20
2008,08,14,06,44,14.30
2008,08,14,06,45,14.30
2008,08,14,06,46,14.40
2008,08,14,06,47,14.50
2008,08,14,06,48,14.50
2008,08,14,06,49,14.60
2008,08,14,06,50,14.60
2008,08,14,06,51,14.60
2008,08,14,06,52,14.60
2008,08,14,06,53,14.60
2008,08,14,06,54,14.70
2008,08,14,06,55,14.70
2008,08,14,06,56,14.70
2008,08,14,06,57,14.80
2008,08,14,06,58,14.80
2008,08,14,06,59,14.80
2008,08,14,07,00,14.90
2008,08,14,07,01,15.00
2008,08,14,07,02,15.00
2008,08,14,07,03,15.00
2008,08,14,07,04,15.00
2008,08,14,07,05,15.00
2008,08,14,07,06,15.00
2008,08,14,07,07,15.10
2008,08,14,07,08,15.20
2008,08,14,07,09,15.20
2008,08,14,07,10,15.30
2008,08,14,07,11,15.40
2008,08,14,07,12,15.40
2008,08,14,07,13,15.50
2008,08,14,07,14,15.60
2008,08,14,07,15,15.60
2008,08,14,07,16,15.70
2008,08,14,07,17,15.70
2008,08,14,07,18,15.80
2008,08,14,07,19,15.80
2008,08,14,07,20,15.80
2008,08,14,07,21,15.90
2008,08,14,07,22,16.00
2008,08,14,07,23,16.10
2008,08,14,07,24,16.20
2008,08,14,07,25,16.20
2008,08,14,07,26,16.30
2008,08,14,07,27,16.40
2008,08,14,07,28,16.40
2008,08,14,07,29,16.50
2008,08,14,07,30,16.60
2008,08,14,07,31,16.60
2008,08,14,07,32,16.70
2008,08,14,07,33,16.80
2008,08,14,07,34,16.90
2008,08,14,07,35,17.00
2008,08,14,07,36,17.00
2008,08,14,07,37,17.10
2008,08,14,07,38,17.10
2008,08,14,07,39,17.20
2008,08,14,07,40,17.20
2008,08,14,07,41,17.20
2008,08,14,07,42,17.30
2008,08,14,07,43,17.30
2008,08,14,07,44,17.40
2008,08,14,07,45,17.50
2008,08,14,07,46,17.60
2008,08,14,07,47,17.70
2008,08,14,07,48,17.70
2008,08,14,07,49,17.80
2008,08,14,07,50,17.90
2008,08,14,07,51,18.00
2008,08,14,07,52,18.10
2008,08,14,07,53,18.20
2008,08,14,07,54,18.30
2008,08,14,07,55,18.40
2008,08,14,07,56,18.50
2008,08,14,07,57,18.60
2008,08,14,07,58,18.80
2008,08,14,07,59,18.80
2008,08,14,08,00,18.80
2008,08,14,08,01,18.80
2008,08,14,08,02,18.80
2008,08,14,08,03,18.90
2008,08,14,08,04,19.00
2008,08,14,08,05,19.10
2008,08,14,08,06,19.10
2008,08,14,08,07,19.20
2008,08,14,08,08,19.30
2008,08,14,08,09,19.30
2008,08,14,08,10,19.40
2008,08,14,08,11,19.50
2008,08,14,08,12,19.70
2008,08,14,08,13,19.80
2008,08,14,08,14,19.90
2008,08,14,08,15,20.00
2008,08,14,08,16,20.00
2008,08,14,08,17,20.10
2008,08,14,08,18,20.20
2008,08,14,08,19,20.30
2008,08,14,08,20,20.30
2008,08,14,08,21,20.40
2008,08,14,08,22,20.50
2008,08,14,08,23,20.60
2008,08,14,08,24,20.70
2008,08,14,08,25,20.80
2008,08,14,08,26,20.90
2008,08,14,08,27,21.00
2008,08,14,08,28,21.10
2008,08,14,08,29,21.10
2008,08,14,08,30,21.20
2008,08,14,08,31,21.30
2008,08,14,08,32,21.40
2008,08,14,08,33,21.50
2008,08,14,08,34,21.60
2008,08,14,08,35,21.70
2008,08,14,08,36,21.80
2008,08,14,08,37,21.80
2008,08,14,08,38,21.90
2008,08,14,08,39,22.00
2008,08,14,08,40,22.00
2008,08,14,08,41,22.10
2008,08,14,08,42,22.10
2008,08,14,08,43,22.20
2008,08,14,08,44,22.20
2008,08,14,08,45,22.20
2008,08,14,08,46,22.30
2008,08,14,08,47,22.30
2008,08,14,08,48,22.30
2008,08,14,08,49,22.40
2008,08,14,08,50,22.50
2008,08,14,08,51,22.60
2008,08,14,08,52,22.70
2008,08,14,08,53,22.80
2008,08,14,08,54,22.80
2008,08,14,08,55,22.90
2008,08,14,08,56,23.00
2008,08,14,08,57,23.10
2008,08,14,08,58,23.10
2008,08,14,08,59,23.20
2008,08,14,09,00,23.20
2008,08,14,09,01,23.20
2008,08,14,09,02,23.20
2008,08,14,09,03,23.20
2008,08,14,09,04,23.20
2008,08,14,09,05,23.20
2008,08,14,09,06,23.30
2008,08,14,09,07,23.30
2008,08,14,09,08,23.40
2008,08,14,09,09,23.40
2008,08,14,09,10,23.40
2008,08,14,09,11,23.40
2008,08,14,09,12,23.50
2008,08,14,09,13,23.60
2008,08,14,09,14,23.70
2008,08,14,09,15,23.80
2008,08,14,09,16,23.80
2008,08,14,09,17,23.80
2008,08,14,09,18,23.80
2008,08,14,09,19,23.90
2008,08,14,09,20,23.90
2008,08,14,09,21,23.90
2008,08,14,09,22,23.80
2008,08,14,09,23,23.90
2008,08,14,09,24,23.90
2008,08,14,09,25,23.90
2008,08,14,09,26,24.00
2008,08,14,09,27,24.00
2008,08,14,09,28,24.00
2008,08,14,09,29,23.90
2008,08,14,09,30,23.80
2008,08,14,09,31,23.80
2008,08,14,09,32,23.80
2008,08,14,09,33,23.80
2008,08,14,09,34,23.80
2008,08,14,09,35,23.90
2008,08,14,09,36,24.00
2008,08,14,09,37,24.00
2008,08,14,09,38,24.10
2008,08,14,09,39,24.10
2008,08,14,09,40,24.20
2008,08,14,09,41,24.20
2008,08,14,09,42,24.20
2008,08,14,09,43,24.20
2008,08,14,09,44,24.20
2008,08,14,09,45,24.30
2008,08,14,09,46,24.40
2008,08,14,09,47,24.40
2008,08,14,09,48,24.40
2008,08,14,09,49,24.50
2008,08,14,09,50,24.60
2008,08,14,09,51,24.60
2008,08,14,09,52,24.70
2008,08,14,09,53,24.70
2008,08,14,09,54,24.80
2008,08,14,09,55,24.80
2008,08,14,09,56,24.60
2008,08,14,09,57,24.50
2008,08,14,09,58,24.50
2008,08,14,09,59,24.40
2008,08,14,10,00,24.40
2008,08,14,10,01,24.30
2008,08,14,10,02,24.30
2008,08,14,10,03,24.30
2008,08,14,10,04,24.40
2008,08,14,10,05,24.40
2008,08,14,10,06,24.40
2008,08,14,10,07,24.40
2008,08,14,10,08,24.40
2008,08,14,10,09,24.30
2008,08,14,10,10,24.30
2008,08,14,10,11,24.20
2008,08,14,10,12,24.20
2008,08,14,10,13,24.20
2008,08,14,10,14,24.20
2008,08,14,10,15,24.20
2008,08,14,10,16,24.30
2008,08,14,10,17,24.20
2008,08,14,10,18,24.20
2008,08,14,10,19,24.20
2008,08,14,10,20,24.20
2008,08,14,10,21,24.10
2008,08,14,10,22,24.00
2008,08,14,10,23,24.00
2008,08,14,10,24,24.10
2008,08,14,10,25,24.20
2008,08,14,10,26,24.30
2008,08,14,10,27,24.40
2008,08,14,10,28,24.50
2008,08,14,10,29,24.50
2008,08,14,10,30,24.60
2008,08,14,10,31,24.60
2008,08,14,10,32,24.60
2008,08,14,10,33,24.60
2008,08,14,10,34,24.60
2008,08,14,10,35,24.60
2008,08,14,10,36,24.60
2008,08,14,10,37,24.70
2008,08,14,10,38,24.70
2008,08,14,10,39,24.70
2008,08,14,10,40,24.70
2008,08,14,10,41,24.70
2008,08,14,10,42,24.70
2008,08,14,10,43,24.70
2008,08,14,10,44,24.70
2008,08,14,10,45,24.70
2008,08,14,10,46,24.70
2008,08,14,10,47,24.70
2008,08,14,10,48,24.60
2008,08,14,10,49,24.60
2008,08,14,10,50,24.60
2008,08,14,10,51,24.70
2008,08,14,10,52,24.70
2008,08,14,10,53,24.80
2008,08,14,10,54,24.90
2008,08,14,10,55,24.90
2008,08,14,10,56,25.00
2008,08,14,10,57,25.00
2008,08,14,10,58,25.00
2008,08,14,10,59,24.90
2008,08,14,11,00,24.90
2008,08,14,11,01,24.90
2008,08,14,11,02,24.90
2008,08,14,11,03,25.00
2008,08,14,11,04,25.10
2008,08,14,11,05,25.10
2008,08,14,11,06,25.30
2008,08,14,11,07,25.40
2008,08,14,11,08,25.50
2008,08,14,11,09,25.50
2008,08,14,11,10,25.60
2008,08,14,11,11,25.60
2008,08,14,11,12,25.70
2008,08,14,11,13,25.70
2008,08,14,11,14,25.80
2008,08,14,11,15,25.80
2008,08,14,11,16,25.80
2008,08,14,11,17,25.90
2008,08,14,11,18,25.90
2008,08,14,11,19,26.00
2008,08,14,11,20,26.00
2008,08,14,11,21,26.10
2008,08,14,11,22,26.00
2008,08,14,11,23,25.90
2008,08,14,11,24,25.90
2008,08,14,11,25,25.80
2008,08,14,11,26,25.90
2008,08,14,11,27,25.90
2008,08,14,11,28,25.90
2008,08,14,11,29,25.90
2008,08,14,11,30,25.90
2008,08,14,11,31,26.00
2008,08,14,11,32,26.10
2008,08,14,11,33,26.20
2008,08,14,11,34,26.30
2008,08,14,11,35,26.40
2008,08,14,11,36,26.50
2008,08,14,11,37,26.40
2008,08,14,11,38,26.30
2008,08,14,11,39,26.30
2008,08,14,11,40,26.30
2008,08,14,11,41,26.40
2008,08,14,11,42,26.40
2008,08,14,11,43,26.40
2008,08,14,11,44,26.40
2008,08,14,11,45,26.40
2008,08,14,11,46,26.40
2008,08,14,11,47,26.30
2008,08,14,11,48,26.40
2008,08,14,11,49,26.40
2008,08,14,11,50,26.50
2008,08,14,11,51,26.50
2008,08,14,11,52,26.70
2008,08,14,11,53,26.80
2008,08,14,11,54,26.90
2008,08,14,11,55,27.00
2008,08,14,11,56,27.10
2008,08,14,11,57,27.10
2008,08,14,11,58,27.10
2008,08,14,11,59,27.10
2008,08,14,12,00,27.10
2008,08,14,12,01,27.10
2008,08,14,12,02,27.20
2008,08,14,12,03,27.30
2008,08,14,12,04,27.40
2008,08,14,12,05,27.40
2008,08,14,12,06,27.50
2008,08,14,12,07,27.60
2008,08,14,12,08,27.60
2008,08,14,12,09,27.50
2008,08,14,12,10,27.50
2008,08,14,12,11,27.50
2008,08,14,12,12,27.50
2008,08,14,12,13,27.50
2008,08,14,12,14,27.50
2008,08,14,12,15,27.60
2008,08,14,12,16,27.50
2008,08,14,12,17,27.40
2008,08,14,12,18,27.40
2008,08,14,12,19,27.40
2008,08,14,12,20,27.50
2008,08,14,12,21,27.60
2008,08,14,12,22,27.70
2008,08,14,12,23,27.80
2008,08,14,12,24,27.80
2008,08,14,12,25,27.90
2008,08,14,12,26,27.90
2008,08,14,12,27,27.90
2008,08,14,12,28,27.90
2008,08,14,12,29,27.90
2008,08,14,12,30,28.00
2008,08,14,12,31,27.90
2008,08,14,12,32,27.80
2008,08,14,12,33,27.60
2008,08,14,12,34,27.40
2008,08,14,12,35,27.40
2008,08,14,12,36,27.40
2008,08,14,12,37,27.40
2008,08,14,12,38,27.30
2008,08,14,12,39,27.30
2008,08,14,12,40,27.30
2008,08,14,12,41,27.40
2008,08,14,12,42,27.40
2008,08,14,12,43,27.40
2008,08,14,12,44,27.40
2008,08,14,12,45,27.30
2008,08,14,12,46,27.20
2008,08,14,12,47,27.20
2008,08,14,12,48,27.20
2008,08,14,12,49,27.20
2008,08,14,12,50,27.20
2008,08,14,12,51,27.20
2008,08,14,12,52,27.30
2008,08,14,12,53,27.40
2008,08,14,12,54,27.40
2008,08,14,12,55,27.50
2008,08,14,12,56,27.50
2008,08,14,12,57,27.50
2008,08,14,12,58,27.50
2008,08,14,12,59,27.50
2008,08,14,13,00,27.60
2008,08,14,13,01,27.70
2008,08,14,13,02,27.70
2008,08,14,13,03,27.60
2008,08,14,13,04,27.30
2008,08,14,13,05,27.10
2008,08,14,13,06,27.00
2008,08,14,13,07,27.00
2008,08,14,13,08,27.00
2008,08,14,13,09,27.00
2008,08,14,13,10,27.00
2008,08,14,13,11,26.90
2008,08,14,13,12,27.00
2008,08,14,13,13,27.00
2008,08,14,13,14,27.10
2008,08,14,13,15,27.10
2008,08,14,13,16,27.10
2008,08,14,13,17,27.10
2008,08,14,13,18,27.20
2008,08,14,13,19,27.20
2008,08,14,13,20,27.30
2008,08,14,13,21,27.30
2008,08,14,13,22,27.40
2008,08,14,13,23,27.50
2008,08,14,13,24,27.60
2008,08,14,13,25,27.80
2008,08,14,13,26,27.90
2008,08,14,13,27,28.00
2008,08,14,13,28,28.10
2008,08,14,13,29,28.20
2008,08,14,13,30,28.30
2008,08,14,13,31,28.30
2008,08,14,13,32,28.30
2008,08,14,13,33,28.30
2008,08,14,13,34,28.40
2008,08,14,13,35,28.50
2008,08,14,13,36,28.60
2008,08,14,13,37,28.70
2008,08,14,13,38,28.60
2008,08,14,13,39,28.50
2008,08,14,13,40,28.50
2008,08,14,13,41,28.50
2008,08,14,13,42,28.60
2008,08,14,13,43,28.60
2008,08,14,13,44,28.70
2008,08,14,13,45,28.80
2008,08,14,13,46,29.00
2008,08,14,13,47,29.10
2008,08,14,13,48,29.10
2008,08,14,13,49,29.20
2008,08,14,13,50,29.20
2008,08,14,13,51,29.20
2008,08,14,13,52,29.20
2008,08,14,13,53,29.30
2008,08,14,13,54,29.50
2008,08,14,13,55,29.60
2008,08,14,13,56,29.70
2008,08,14,13,57,29.70
2008,08,14,13,58,29.80
2008,08,14,13,59,29.80
2008,08,14,14,00,29.80
2008,08,14,14,01,29.70
2008,08,14,14,02,29.50
2008,08,14,14,03,29.30
2008,08,14,14,04,29.20
2008,08,14,14,05,29.10
2008,08,14,14,06,28.90
2008,08,14,14,07,28.80
2008,08,14,14,08,28.80
2008,08,14,14,09,28.80
2008,08,14,14,10,28.80
2008,08,14,14,11,28.90
2008,08,14,14,12,28.90
2008,08,14,14,13,28.80
2008,08,14,14,14,28.80
2008,08,14,14,15,28.70
2008,08,14,14,16,28.70
2008,08,14,14,17,28.70
2008,08,14,14,18,28.70
2008,08,14,14,19,28.80
2008,08,14,14,20,28.80
2008,08,14,14,21,28.80
2008,08,14,14,22,28.80
2008,08,14,14,23,28.70
2008,08,14,14,24,28.70
2008,08,14,14,25,28.60
2008,08,14,14,26,28.40
2008,08,14,14,27,28.30
2008,08,14,14,28,28.20
2008,08,14,14,29,28.20
2008,08,14,14,30,28.20
2008,08,14,14,31,28.30
2008,08,14,14,32,28.40
2008,08,14,14,33,28.50
2008,08,14,14,34,28.50
2008,08,14,14,35,28.50
2008,08,14,14,36,28.60
2008,08,14,14,37,28.70
2008,08,14,14,38,28.70
2008,08,14,14,39,28.70
2008,08,14,14,40,28.70
2008,08,14,14,41,28.60
2008,08,14,14,42,28.60
2008,08,14,14,43,28.60
2008,08,14,14,44,28.70
2008,08,14,14,45,28.70
2008,08,14,14,46,28.80
2008,08,14,14,47,28.90
2008,08,14,14,48,28.90
2008,08,14,14,49,28.90
2008,08,14,14,50,29.00
2008,08,14,14,51,29.20
2008,08,14,14,52,29.30
2008,08,14,14,53,29.40
2008,08,14,14,54,29.40
2008,08,14,14,55,29.50
2008,08,14,14,56,29.50
2008,08,14,14,57,29.60
2008,08,14,14,58,29.60
2008,08,14,14,59,29.60
2008,08,14,15,00,29.60
2008,08,14,15,01,29.60
2008,08,14,15,02,29.70
2008,08,14,15,03,29.70
2008,08,14,15,04,29.70
2008,08,14,15,05,29.70
2008,08,14,15,06,29.70
2008,08,14,15,07,29.60
2008,08,14,15,08,29.60
2008,08,14,15,09,29.50
2008,08,14,15,10,29.40
2008,08,14,15,11,29.40
2008,08,14,15,12,29.30
2008,08,14,15,13,29.30
2008,08,14,15,14,29.40
2008,08,14,15,15,29.40
2008,08,14,15,16,29.50
2008,08,14,15,17,29.60
2008,08,14,15,18,29.70
2008,08,14,15,19,29.70
2008,08,14,15,20,29.80
2008,08,14,15,21,29.80
2008,08,14,15,22,29.90
2008,08,14,15,23,30.00
2008,08,14,15,24,30.10
2008,08,14,15,25,30.20
2008,08,14,15,26,30.30
2008,08,14,15,27,30.30
2008,08,14,15,28,30.30
2008,08,14,15,29,30.30
2008,08,14,15,30,30.20
2008,08,14,15,31,30.10
2008,08,14,15,32,30.00
2008,08,14,15,33,29.90
2008,08,14,15,34,29.80
2008,08,14,15,35,29.90
2008,08,14,15,36,29.90
2008,08,14,15,37,29.80
2008,08,14,15,38,29.80
2008,08,14,15,39,29.90
2008,08,14,15,40,30.00
2008,08,14,15,41,30.10
2008,08,14,15,42,30.20
2008,08,14,15,43,30.30
2008,08,14,15,44,30.30
2008,08,14,15,45,30.20
2008,08,14,15,46,30.20
2008,08,14,15,47,30.20
2008,08,14,15,48,30.20
2008,08,14,15,49,30.30
2008,08,14,15,50,30.30
2008,08,14,15,51,30.30
2008,08,14,15,52,30.30
2008,08,14,15,53,30.20
2008,08,14,15,54,30.30
2008,08,14,15,55,30.30
2008,08,14,15,56,30.30
2008,08,14,15,57,30.30
2008,08,14,15,58,30.30
2008,08,14,15,59,30.30
2008,08,14,16,00,30.30
2008,08,14,16,01,30.20
2008,08,14,16,02,30.10
2008,08,14,16,03,30.00
2008,08,14,16,04,29.90
2008,08,14,16,05,29.80
2008,08,14,16,06,29.80
2008,08,14,16,07,29.70
2008,08,14,16,08,29.70
2008,08,14,16,09,29.70
2008,08,14,16,10,29.80
2008,08,14,16,11,29.80
2008,08,14,16,12,29.90
2008,08,14,16,13,29.90
2008,08,14,16,14,30.00
2008,08,14,16,15,30.00
2008,08,14,16,16,30.00
2008,08,14,16,17,29.90
2008,08,14,16,18,29.80
2008,08,14,16,19,29.80
2008,08,14,16,20,29.70
2008,08,14,16,21,29.70
2008,08,14,16,22,29.70
2008,08,14,16,23,29.70
2008,08,14,16,24,29.70
2008,08,14,16,25,29.70
2008,08,14,16,26,29.70
2008,08,14,16,27,29.80
2008,08,14,16,28,29.80
2008,08,14,16,29,29.90
2008,08,14,16,30,29.90
2008,08,14,16,31,29.90
2008,08,14,16,32,29.90
2008,08,14,16,33,29.90
2008,08,14,16,34,29.90
2008,08,14,16,35,30.00
2008,08,14,16,36,30.00
2008,08,14,16,37,30.10
2008,08,14,16,38,30.10
2008,08,14,16,39,30.10
2008,08,14,16,40,30.10
2008,08,14,16,41,30.10
2008,08,14,16,42,30.10
2008,08,14,16,43,30.10
2008,08,14,16,44,30.10
2008,08,14,16,45,30.10
2008,08,14,16,46,30.10
2008,08,14,16,47,30.10
2008,08,14,16,48,30.00
2008,08,14,16,49,30.00
2008,08,14,16,50,29.90
2008,08,14,16,51,29.80
2008,08,14,16,52,29.80
2008,08,14,16,53,29.80
2008,08,14,16,54,29.80
2008,08,14,16,55,29.70
2008,08,14,16,56,29.70
2008,08,14,16,57,29.70
2008,08,14,16,58,29.80
2008,08,14,16,59,29.80
2008,08,14,17,00,29.80
2008,08,14,17,01,29.90
2008,08,14,17,02,29.90
2008,08,14,17,03,29.90
2008,08,14,17,04,29.90
2008,08,14,17,05,29.80
2008,08,14,17,06,29.80
2008,08,14,17,07,29.80
2008,08,14,17,08,29.80
2008,08,14,17,09,29.80
2008,08,14,17,10,29.80
2008,08,14,17,11,29.80
2008,08,14,17,12,29.80
2008,08,14,17,13,29.80
2008,08,14,17,14,29.80
2008,08,14,17,15,29.80
2008,08,14,17,16,29.80
2008,08,14,17,17,29.80
2008,08,14,17,18,29.80
2008,08,14,17,19,29.80
2008,08,14,17,20,29.80
2008,08,14,17,21,29.80
2008,08,14,17,22,29.80
2008,08,14,17,23,29.80
2008,08,14,17,24,29.80
2008,08,14,17,25,29.80
2008,08,14,17,26,29.80
2008,08,14,17,27,29.70
2008,08,14,17,28,29.60
2008,08,14,17,29,29.60
2008,08,14,17,30,29.50